Flag for Germany Weather past 2 weeks in Görlitz, Saxony, Germany

Now
53 °F

Overcast.


Feels Like: 50 °F
Forecast: 37 / 43 °F
Wind: 8 mph from Southwest

Location: Goerlitz

Current Time: Dec 19, 2014 at 10:47:08 AM

Latest Report: Dec 19, 2014 at 10:00 AM


Visibility: 31 mi

Pressure: 29.85 "Hg

Humidity: 77%

Dew point: 46 °F

Location of GörlitzLocation

Historic Weather in Görlitz — Graph

°F

Görlitz temperature yesterday

Maximum temperature yesterday: 48 °F (at 10:00 PM)
Minimum temperature yesterday: 38 °F (at 12:00 AM)
Average temperature yesterday: 45 °F

Past Weeks' High & Low Weather Summary

 TemperatureHumidityPressure
High54 °F (Dec 19, 4:00 AM)99% (Dec 6, 5:00 AM)30.46 "Hg (Dec 6, 5:00 AM)
Low24 °F (Dec 9, 8:00 AM)68% (Dec 12, 10:00 PM)29.58 "Hg (Dec 12, 9:00 PM)
Average39 °F89%30.00 "Hg
* Reported Dec 4 9:00 AM — Dec 19 9:00 AM, Görlitz, Weather by CustomWeather, © 2014

Note: Actual official high and low records may vary slightly from our data, if they occured in-between our weather recording intervals... More about our weather records

Advertising

Görlitz weather history for previous 24 hours

 ConditionsComfort  
Time TempWeatherWind HumidityBarometerVisibility
9:00 AM
Dec 19
53 °FOvercast.9 mph77%29.85 "Hg25 mi
8:00 AM53 °FOvercast.8 mph80%29.85 "Hg25 mi
7:00 AM53 °FOvercast.8 mph80%29.84 "Hg25 mi
6:00 AM52 °FOvercast.8 mph87%29.84 "Hg25 mi
5:00 AM53 °FOvercast.8 mph86%29.84 "Hg22 mi
4:00 AM54 °FOvercast.8 mph83%29.83 "Hg28 mi
3:00 AM54 °FOvercast.9 mph85%29.83 "Hg25 mi
2:00 AM54 °FLight rain. Overcast.9 mph85%29.82 "Hg19 mi
1:00 AM52 °FLight rain. Overcast.6 mph92%29.82 "Hg12 mi
12:00 AM50 °FLight rain. Overcast.7 mph95%29.83 "Hg3 mi
11:00 PM
Dec 18
48 °FLight rain. Overcast.8 mph95%29.83 "Hg3 mi
10:00 PM48 °FLight rain. Overcast.8 mph94%29.83 "Hg4 mi
9:00 PM48 °FLight rain. Overcast.8 mph93%29.83 "Hg8 mi
8:00 PM48 °FOvercast.8 mph90%29.84 "Hg8 mi
7:00 PM48 °FOvercast.8 mph90%29.84 "Hg9 mi
6:00 PM47 °FOvercast.7 mph91%29.85 "Hg11 mi
5:00 PM47 °FOvercast.7 mph90%29.86 "Hg11 mi
4:00 PM47 °FOvercast.7 mph91%29.86 "Hg7 mi
3:00 PM47 °FLight rain. Overcast.7 mph89%29.87 "Hg11 mi
2:00 PM47 °FOvercast.5 mph88%29.87 "Hg14 mi
1:00 PM46 °FOvercast.7 mph89%29.88 "Hg12 mi
12:00 PM46 °FOvercast.7 mph88%29.90 "Hg11 mi
11:00 AM45 °FOvercast.8 mph87%29.89 "Hg14 mi
10:00 AM44 °FOvercast.6 mph89%29.91 "Hg16 mi
Weather by CustomWeather, © 2014

See weather overviewHow to use our weather pages